This is the latest recevied weather packets stored in our database for station/object KD2ZLA. If no packets are shown the sender has not sent any weather packets the latest 10 day(s).
| Time | Temp. | Humidity | Pressure | Rain* | Wind** | Luminosity | Snow |
|---|---|---|---|---|---|---|---|
| 1777490938 | 14.44° C | 75% | 1008.4 hPa | 0 mm | - | 103 W/m² | - |
| 1777490634 | 14.44° C | 76% | 1008.3 hPa | 0 mm | - | 147 W/m² | - |
| 1777490330 | 14.44° C | 75% | 1008.4 hPa | 0 mm | - | 154 W/m² | - |
| 1777490029 | 15° C | 74% | 1008.5 hPa | 0 mm | - | 173 W/m² | - |
| 1777489726 | 15° C | 74% | 1008.6 hPa | 0 mm | - | 206 W/m² | - |
| 1777489423 | 14.44° C | 74% | 1008.3 hPa | 0 mm | - | 188 W/m² | - |
| 1777489120 | 14.44° C | 74% | 1008.5 hPa | 0 mm | - | 177 W/m² | - |
| 1777488817 | 14.44° C | 73% | 1008.7 hPa | 0 mm | - | 177 W/m² | - |
| 1777488514 | 14.44° C | 73% | 1009.1 hPa | 0 mm | - | 140 W/m² | - |
| 1777488212 | 15° C | 72% | 1009.2 hPa | 0 mm | - | 114 W/m² | - |
| 1777487910 | 15° C | 72% | 1009.3 hPa | 0 mm | - | 76 W/m² | - |
| 1777487607 | 15° C | 71% | 1009.4 hPa | 0 mm | - | 60 W/m² | - |
| 1777487305 | 15° C | 71% | 1009.5 hPa | 0 mm | - | 66 W/m² | - |
| 1777487002 | 15° C | 70% | 1009.5 hPa | 0 mm | - | 75 W/m² | - |
| 1777486698 | 15° C | 71% | 1009.4 hPa | 0 mm | - | 76 W/m² | - |
| 1777486396 | 15.56° C | 71% | 1009.4 hPa | 0 mm | - | 61 W/m² | - |
| 1777486093 | 15.56° C | 70% | 1009.4 hPa | 0 mm | - | 96 W/m² | - |
| 1777485789 | 15.56° C | 68% | 1009.6 hPa | 0 mm | - | 145 W/m² | - |
| 1777485485 | 15.56° C | 68% | 1009.5 hPa | 0 mm | - | 79 W/m² | - |
| 1777485181 | 15.56° C | 69% | 1009.3 hPa | 0 mm | - | 102 W/m² | - |
| 1777484877 | 15.56° C | 68% | 1009.4 hPa | 0 mm | - | 225 W/m² | - |
| 1777484575 | 15.56° C | 68% | 1009.4 hPa | 0 mm | - | 234 W/m² | - |
| 1777484271 | 15.56° C | 67% | 1009.5 hPa | 0 mm | - | 152 W/m² | - |
| 1777483967 | 15.56° C | 67% | 1009.7 hPa | 0 mm | - | 94 W/m² | - |
| 1777483664 | 16.11° C | 66% | 1009.7 hPa | 0 mm | - | 168 W/m² | - |
* Rain latest hour (hover to see other rain measurements)
** Current wind speed in m/s (hover to see current wind gust speed)